When you browse on this site, cookies collect data to enhance your experience and personalize the content and advertising you see.
Visit our Privacy Policy to learn more. By continuing to use the site, you agree to this use of cookies and data.
  • In Czech Republic
  • List of Countries
  • For 7 days
  • Water Temperature
  • Satellite Maps
  • Weather Map
  • Weather Widgets
  • user-avatar
    Login

    Hourly Weather Kobetey

    Today, 17 February, Sunday

    Time Temperature Precipitation Wind Pressure Humidity
    00:00 -2°C° 0.1 mm 8 mps 723 mmHg 88%
    01:00 -4°C° 0.1 mm 8 mps 722 mmHg 88%
    02:00 -4°C° 0.1 mm 8 mps 722 mmHg 88%
    03:00 -3°C° 0.1 mm 7 mps 722 mmHg 88%
    04:00 -4°C° 0.1 mm 7 mps 721 mmHg 89%
    05:00 -4°C° 0 mm 8 mps 721 mmHg 89%
    06:00 -3°C° 0 mm 7 mps 721 mmHg 89%
    07:00 -3°C° 0 mm 6 mps 720 mmHg 89%
    08:00 -3°C° 0 mm 6 mps 720 mmHg 89%
    09:00 -3°C° 0 mm 6 mps 720 mmHg 89%
    10:00 -3°C° 0 mm 6 mps 719 mmHg 88%
    11:00 -3°C° 0 mm 6 mps 719 mmHg 88%
    12:00 -3°C° 0 mm 6 mps 718 mmHg 88%
    13:00 -3°C° 0 mm 6 mps 718 mmHg 89%
    14:00 -2°C° 0 mm 5 mps 718 mmHg 89%
    15:00 -2°C° 0.2 mm 4 mps 717 mmHg 90%
    16:00 -3°C° 0.2 mm 4 mps 717 mmHg 90%
    17:00 -2°C° 0.2 mm 3 mps 717 mmHg 91%
    18:00 -2°C° 0.1 mm 3 mps 716 mmHg 91%
    19:00 -2°C° 0.1 mm 3 mps 716 mmHg 91%
    20:00 -4°C° 0.1 mm 3 mps 715 mmHg 91%
    21:00 -4°C° 0.4 mm 3 mps 715 mmHg 93%
    22:00 -4°C° 0.4 mm 4 mps 714 mmHg 94%
    23:00 -4°C° 0.4 mm 4 mps 714 mmHg 95%

    Tomorrow, 18 February, Monday

    Time Temperature Precipitation Wind Pressure Humidity
    00:00 -4°C° 0.4 mm 4 mps 713 mmHg 96%
    01:00 -2°C° 0.4 mm 3 mps 712 mmHg 96%
    02:00 -2°C° 0.4 mm 2 mps 712 mmHg 97%
    03:00 -3°C° 0.2 mm 4 mps 713 mmHg 95%
    04:00 -5°C° 0.2 mm 6 mps 713 mmHg 94%
    05:00 -6°C° 0.2 mm 8 mps 714 mmHg 93%
    06:00 -7°C° 0.2 mm 8 mps 715 mmHg 92%
    07:00 -10°C° 0.2 mm 8 mps 716 mmHg 91%
    08:00 -12°C° 0.2 mm 9 mps 717 mmHg 90%
    09:00 -11°C° 0 mm 8 mps 718 mmHg 90%
    10:00 -11°C° 0 mm 8 mps 718 mmHg 89%
    11:00 -11°C° 0 mm 8 mps 719 mmHg 88%
    12:00 -10°C° 0 mm 8 mps 719 mmHg 87%
    13:00 -10°C° 0 mm 8 mps 719 mmHg 87%
    14:00 -8°C° 0 mm 8 mps 719 mmHg 86%
    15:00 -8°C° 0.1 mm 7 mps 718 mmHg 86%
    16:00 -8°C° 0.1 mm 6 mps 718 mmHg 87%
    17:00 -7°C° 0.1 mm 5 mps 718 mmHg 87%
    18:00 -8°C° 0 mm 6 mps 719 mmHg 87%
    19:00 -9°C° 0 mm 6 mps 719 mmHg 87%
    20:00 -11°C° 0 mm 7 mps 719 mmHg 87%
    21:00 -11°C° 0 mm 7 mps 719 mmHg 88%
    22:00 -11°C° 0 mm 7 mps 719 mmHg 88%
    23:00 -11°C° 0 mm 7 mps 719 mmHg 89%

    Day after tomorrow, 19 February, Tuesday

    Time Temperature Precipitation Wind Pressure Humidity
    00:00 -12°C° 0 mm 7 mps 719 mmHg 89%
    01:00 -12°C° 0 mm 7 mps 719 mmHg 90%
    02:00 -12°C° 0 mm 7 mps 719 mmHg 90%
    03:00 -11°C° 0 mm 7 mps 719 mmHg 88%
    04:00 -10°C° 0 mm 8 mps 718 mmHg 87%
    05:00 -9°C° 0 mm 9 mps 718 mmHg 85%
    06:00 -9°C° 0 mm 9 mps 718 mmHg 85%
    07:00 -8°C° 0 mm 10 mps 718 mmHg 86%
    08:00 -7°C° 0 mm 10 mps 717 mmHg 86%
    09:00 -6°C° 0.1 mm 11 mps 717 mmHg 85%
    10:00 -6°C° 0.1 mm 11 mps 717 mmHg 85%
    11:00 -5°C° 0.1 mm 12 mps 718 mmHg 85%
    12:00 -4°C° 0.2 mm 11 mps 718 mmHg 85%
    13:00 -3°C° 0.2 mm 10 mps 718 mmHg 86%
    14:00 -3°C° 0.2 mm 9 mps 719 mmHg 86%
    15:00 -4°C° 0.1 mm 8 mps 719 mmHg 86%
    16:00 -4°C° 0.1 mm 6 mps 719 mmHg 86%
    17:00 -5°C° 0.1 mm 5 mps 720 mmHg 85%
    18:00 -5°C° 0.2 mm 4 mps 720 mmHg 88%
    19:00 -5°C° 0.2 mm 3 mps 721 mmHg 90%
    20:00 -6°C° 0.2 mm 3 mps 721 mmHg 92%
    21:00 -5°C° 0.2 mm 3 mps 721 mmHg 93%
    22:00 -5°C° 0.2 mm 3 mps 722 mmHg 93%
    23:00 -5°C° 0.2 mm 3 mps 722 mmHg 94%

    20 February, Wednesday

    Time Temperature Precipitation Wind Pressure Humidity
    00:00 -6°C° 0.2 mm 3 mps 722 mmHg 94%
    01:00 -6°C° 0.2 mm 3 mps 722 mmHg 95%
    02:00 -6°C° 0.2 mm 3 mps 722 mmHg 96%
    03:00 -6°C° 0.2 mm 3 mps 723 mmHg 96%
    04:00 -7°C° 0.2 mm 3 mps 723 mmHg 96%
    05:00 -7°C° 0.2 mm 3 mps 724 mmHg 96%
    06:00 -9°C° 0 mm 3 mps 724 mmHg 95%
    07:00 -10°C° 0 mm 3 mps 724 mmHg 94%
    08:00 -14°C° 0 mm 4 mps 725 mmHg 93%
    09:00 -12°C° 0 mm 4 mps 725 mmHg 92%
    10:00 -12°C° 0 mm 5 mps 726 mmHg 92%
    11:00 -11°C° 0 mm 5 mps 726 mmHg 91%
    12:00 -11°C° 0 mm 5 mps 727 mmHg 91%
    13:00 -10°C° 0 mm 5 mps 727 mmHg 91%
    14:00 -10°C° 0 mm 5 mps 727 mmHg 91%
    15:00 -10°C° 0 mm 5 mps 728 mmHg 91%
    16:00 -10°C° 0 mm 5 mps 728 mmHg 92%
    17:00 -11°C° 0 mm 5 mps 728 mmHg 92%
    18:00 -11°C° 0 mm 5 mps 729 mmHg 92%
    19:00 -11°C° 0 mm 5 mps 729 mmHg 92%
    20:00 -11°C° 0 mm 6 mps 730 mmHg 92%
    21:00 -11°C° 0 mm 6 mps 730 mmHg 92%
    22:00 -11°C° 0 mm 6 mps 731 mmHg 92%
    23:00 -11°C° 0 mm 5 mps 731 mmHg 92%

    21 February, Thursday

    Time Temperature Precipitation Wind Pressure Humidity
    00:00 -11°C° 0 mm 6 mps 731 mmHg 92%
    01:00 -11°C° 0 mm 6 mps 731 mmHg 92%
    02:00 -11°C° 0 mm 6 mps 731 mmHg 92%
    03:00 -11°C° 0.1 mm 6 mps 731 mmHg 92%
    04:00 -11°C° 0.1 mm 6 mps 731 mmHg 92%
    05:00 -11°C° 0.1 mm 6 mps 731 mmHg 93%
    06:00 -11°C° 0 mm 6 mps 732 mmHg 93%
    07:00 -11°C° 0 mm 6 mps 732 mmHg 92%
    08:00 -11°C° 0 mm 6 mps 732 mmHg 92%
    09:00 -12°C° 0 mm 7 mps 732 mmHg 91%
    10:00 -11°C° 0 mm 8 mps 732 mmHg 90%
    11:00 -11°C° 0 mm 8 mps 733 mmHg 89%
    12:00 -11°C° 0 mm 8 mps 733 mmHg 88%
    13:00 -10°C° 0 mm 9 mps 733 mmHg 87%
    14:00 -10°C° 0 mm 9 mps 733 mmHg 86%
    15:00 -11°C° 0 mm 8 mps 733 mmHg 86%
    16:00 -11°C° 0 mm 8 mps 733 mmHg 86%
    17:00 -12°C° 0 mm 7 mps 734 mmHg 87%
    18:00 -13°C° 0 mm 7 mps 734 mmHg 88%
    19:00 -14°C° 0 mm 6 mps 735 mmHg 88%
    20:00 -14°C° 0 mm 6 mps 735 mmHg 89%
    21:00 -15°C° 0 mm 6 mps 735 mmHg 89%
    22:00 -15°C° 0 mm 6 mps 736 mmHg 89%
    23:00 -16°C° 0 mm 6 mps 736 mmHg 89%

    22 February, Friday

    Time Temperature Precipitation Wind Pressure Humidity
    00:00 -15°C° 0 mm 5 mps 736 mmHg 89%
    01:00 -17°C° 0 mm 5 mps 736 mmHg 89%
    02:00 -17°C° 0 mm 5 mps 737 mmHg 89%
    03:00 -18°C° 0 mm 5 mps 737 mmHg 89%
    04:00 -17°C° 0 mm 4 mps 737 mmHg 90%
    05:00 -18°C° 0 mm 4 mps 737 mmHg 90%
    06:00 -18°C° 0 mm 4 mps 737 mmHg 91%
    07:00 -18°C° 0 mm 4 mps 737 mmHg 91%
    08:00 -18°C° 0 mm 4 mps 737 mmHg 92%
    09:00 -16°C° 0 mm 4 mps 737 mmHg 92%
    10:00 -15°C° 0 mm 5 mps 737 mmHg 92%
    11:00 -14°C° 0 mm 5 mps 738 mmHg 92%
    12:00 -13°C° 0 mm 5 mps 737 mmHg 92%
    13:00 -11°C° 0 mm 4 mps 737 mmHg 92%
    14:00 -11°C° 0 mm 4 mps 737 mmHg 92%
    15:00 -11°C° 0 mm 4 mps 737 mmHg 93%
    16:00 -12°C° 0 mm 3 mps 737 mmHg 93%
    17:00 -13°C° 0 mm 3 mps 737 mmHg 94%
    18:00 -13°C° 0 mm 3 mps 736 mmHg 94%
    19:00 -14°C° 0 mm 3 mps 736 mmHg 94%
    20:00 -15°C° 0 mm 3 mps 736 mmHg 93%
    21:00 -15°C° 0 mm 3 mps 736 mmHg 92%
    22:00 -16°C° 0 mm 4 mps 736 mmHg 90%
    23:00 -16°C° 0 mm 4 mps 736 mmHg 89%
    Show more